Simultaneous Nadir Overpasses (SNOs) Predictions

Prediction of SNOs between NOAA-19 and TERRA Satellite Orbit:

Table of predicted SNOs for the next 14.0 days since TLE Epoch: 3/9/2014
Index Date (NOAA-19) Time (NOAA-19) Lat,Lon (NOAA-19) SZA (NOAA-19 ) Date (TERRA) Time (TERRA) Lat,Lon (TERRA) SZA (TERRA ) Distance(km) Time Diff (sec)
1 03/09/2014 12:23:31 -70.94, 174.00 104.74 03/09/2014 12:24:40 -70.85, 175.75 104.85 64.61 69
2 03/09/2014 13:14:17 70.19, -17.52 74.49 03/09/2014 13:14:17 70.21, -17.57 74.50 2.45 0
3 03/09/2014 14:05:06 -69.44, 150.87 106.29 03/09/2014 14:03:57 -69.54, 149.14 106.17 68.42 69
4 03/11/2014 17:58:17 70.23, -88.55 73.66 03/11/2014 17:58:30 70.25, -88.55 73.69 2.93 13
5 03/11/2014 18:49:14 -69.92, 79.17 106.67 03/11/2014 18:48:02 -69.97, 78.68 106.61 19.65 72
6 03/13/2014 22:42:16 70.27,-159.60 72.84 03/13/2014 22:42:42 70.27,-159.58 72.84 0.75 26
7 03/13/2014 23:33:18 -70.14, 7.84 107.31 03/13/2014 23:32:12 -70.16, 7.89 107.29 2.71 66
8 03/16/2014 03:26:15 70.27, 129.43 71.98 03/16/2014 03:26:55 70.27, 129.36 71.96 2.72 40
9 03/16/2014 04:17:18 -70.17, -63.18 108.14 03/16/2014 04:16:25 -70.15, -63.17 108.16 2.35 53
10 03/18/2014 08:10:15 70.34, 58.35 71.17 03/18/2014 08:11:06 70.34, 58.42 71.17 2.38 51
11 03/18/2014 09:01:17 -70.16,-134.14 109.02 03/18/2014 09:00:37 -70.18,-134.19 109.01 2.06 40
12 03/20/2014 12:54:14 70.35, -12.65 70.32 03/20/2014 12:55:18 70.33, -12.64 70.29 3.00 64
13 03/20/2014 13:45:17 -70.22, 154.80
